星链-37907(STARLINK-37907)

导读

STARLINK-37907是SpaceX星链低轨互联网星座的组成卫星,对应NORAD编号69959,具备星链卫星的通用特征:采用扁平化紧凑型设计,兼容猎鹰火箭的批量搭载发射模式,运行于近地轨道,通过星间链路与地面终端配合,为全球用户提供低延迟、高速率的宽带互联网服务,可支撑高清流媒体传输、在线游戏、视频通话等各类网络应用场景,是星链星座实现全球网络覆盖的部署节点之一。

基本信息
目录编号:
69959
目录名称:
STARLINK-37907
国际标识:
2026-157S
轨道中心:
EARTH
卫星名称:
星链-37907
卫星全名:
星链-37907(STARLINK-37907)
卫星状态:
在轨 (已飞行58 天)
发射日期:
2026-07-09 UTC
国别 :
美国 (US)
星等 :
--
轨道信息
数据来源 国际轨道数据
星历时间: 2026-09-04T18:32:50+0800
20小时前
查看轨道信息
半长轴: 6840.834km
偏心率: 0.0001036
轨道倾角: 53.160°
近地点辐角 116.041°
升交点赤经 49.048°
平近点角 244.070°
近地点: 461.988km
远地点: 463.406km
周期: 93.848分钟
每日圈数: 15.344023
详细信息
固有亮度:
5
最大亮度:
2.5
卫星平台:
Starlink V1.0
覆盖范围:
全球
运营商:
太空探索技术公司
运营商所在国:
美国
制造商(研发单位):
太空探索技术公司
制造商所在国:
美国
使用方式:
暂无
卫星简介
Starlink 计划是 SpaceX 推出的全球卫星互联网项目,通过发射低轨道卫星,为全球尤其是偏远地区提供高速、低延迟的互联网服务。自 2019 年起,Starlink 已部署数千颗卫星,旨在缩小全球数字鸿沟,推动互联网普及。该项目还为军事、航空等行业提供通信支持,带来广泛经济效益。
2D轨道图
3D轨道图
轨道高度分析图
轨道倾角分析图
轨道综合分析图
查看轨道综合分析图
交会数据列表
事件ID 空间交会对象 最接近时刻(TCA) 交会距离 交会风险概率(CRP) 交会风险指数(CRI) 操作
CDM_260907-120005-174406-995921
2026-09-07T
12:00:09+0000
2.513 km
极远距离
1.552537E-6 低风险 0.39